Hourly Weather Roundup
Issued by NWS Central Illinois

Home | Current Version | Previous Version | Graphics & Text | Print | Product List | Glossary On
Versions: 1 2 3 4 5 6 7 8 9 10 11 12 13 14 15 16 17 18 19 20 21 22 23 24 25 26 27 28 29 30 31 32 33 34 35 36 37 38 39 40 41 42 43 44 45 46 47 48 49 50
000
NZUS43 KILX 130610
HWRILX

Area Weather Roundup
National Weather Service Lincoln IL
1200 AM CST WED DEC 13 2017

NOTE:  "FAIR" indicates few or no clouds below 12,000 feet, with
       no sigificant weather and/or obstructions to visibility.


CITY           SKY/WX    TMP DP  RH WIND       PRES   REMARKS
Bloomington    CLOUDY    22   9  57 SW8       29.95F WCI  12
6HR MIN TEMP:  21; 6HR MAX TEMP:  25;

Champaign      CLOUDY    23   9  55 SW8       29.97F WCI  14
6HR MIN TEMP:  19; 6HR MAX TEMP:  25;

Danville       CLOUDY    21   9  58 CALM      29.95F
6HR MIN TEMP:  17; 6HR MAX TEMP:  21;

Decatur        CLOUDY    20   8  60 S6        29.98F WCI  12
6HR MIN TEMP:  20; 6HR MAX TEMP:  26;

Effingham      CLEAR     20  13  75 S3        30.04F
6HR MIN TEMP:  19; 6HR MAX TEMP:  27;

Flora          CLEAR     22  15  72 S3        30.05F
6HR MIN TEMP:  22; 6HR MAX TEMP:  29;

Galesburg      CLOUDY    24  12  59 S6        29.91F WCI  17
6HR MIN TEMP:  20; 6HR MAX TEMP:  27;

Jacksonville   CLOUDY    25   5  42 SW8       29.97F WCI  16
6HR MIN TEMP:  23; 6HR MAX TEMP:  28;

Lacon          CLOUDY    25   9  51 CALM      29.93F
6HR MIN TEMP:  22; 6HR MAX TEMP:  25;

Lawrenceville  CLEAR     20  12  71 S7        30.06F WCI  11
6HR MIN TEMP:  20; 6HR MAX TEMP:  27;

Litchfield     CLOUDY    20  10  63 S6        30.01F WCI  12
6HR MIN TEMP:  19; 6HR MAX TEMP:  29;

$$


CITY           SKY/WX    TMP DP  RH WIND       PRES   REMARKS
Lincoln        CLOUDY    23  10  57 CALM      29.96F
6HR MIN TEMP:  21; 6HR MAX TEMP:  28;

Macomb         MOCLDY    25   9  50 SW10      29.94F WCI  15
6HR MIN TEMP:  20; 6HR MAX TEMP:  28;

Mattoon        CLOUDY    22  10  60 S7        29.98F WCI  13
6HR MIN TEMP:  20; 6HR MAX TEMP:  25;

Mt Carmel AP   CLEAR     20  11  69 CALM      30.06F
6HR MIN TEMP:  20; 6HR MAX TEMP:  25;

Olney-Noble AP CLOUDY    20  10  63 CALM      30.05F
Paris AP       CLOUDY    23  11  60 SW7       29.99F WCI  15
6HR MIN TEMP:  19; 6HR MAX TEMP:  23;

Peoria         CLOUDY    24   9  52 S5        29.94F WCI  18
6HR MIN TEMP:  21; 6HR MAX TEMP:  26;

Pontiac        CLOUDY    25   9  49 S7        29.95F WCI  18
6HR MIN TEMP:  18; 6HR MAX TEMP:  25;

Rantoul        CLOUDY    24  13  61 SW3       29.97F
6HR MIN TEMP:  22; 6HR MAX TEMP:  26;

Robinson       PTCLDY    18  10  71 S7        30.05F WCI   9
6HR MIN TEMP:  17; 6HR MAX TEMP:  26;

Springfield    CLOUDY    24   6  46 SW7       29.98F WCI  16
6HR MIN TEMP:  19; 6HR MAX TEMP:  29;

Taylorville    CLOUDY    22   7  54 SW7       30.00F WCI  13
6HR MIN TEMP:  19; 6HR MAX TEMP:  27;

$$

...REGIONAL REPORTS...


CITY           SKY/WX    TMP DP  RH WIND       PRES   REMARKS
Chicago O`Hare CLOUDY    22   8  55 SW5       29.90F WCI  16
Kankakee       CLOUDY    20  10  65 S6        29.95F WCI  13
Moline         CLOUDY    28   7  41 SW7       29.88F WCI  21
Mount Sterling CLOUDY    23   8  54 SW7       29.95F WCI  14
Mount Vernon   CLOUDY    19  15  84 CALM      30.06F
Pittsfield     CLOUDY    27   9  47 S6        29.98F WCI  20
Quincy         CLOUDY    26   9  48 S9        29.95F WCI  17
Rockford       CLOUDY    22  13  68 S6        29.88F WCI  14
$$


CITY           SKY/WX    TMP DP  RH WIND       PRES   REMARKS
Burlington     MOCLDY    25  14  63 S8        29.89F WCI  16
Cedar Rapids   CLOUDY    26  14  60 S7        29.81F WCI  18
Des Moines     CLEAR     28  21  75 S9        29.78F WCI  19
Kirksville     CLOUDY    28  23  81 SW10      29.91F WCI  19
Ottumwa        PTCLDY    30  19  63 S13       29.84F WCI  20
St Louis       CLEAR     28   7  41 SW6       30.02F WCI  22
$$


CITY           SKY/WX    TMP DP  RH WIND       PRES   REMARKS
Terre Haute    CLOUDY    21  10  62 SW3       30.01F
Evansville     CLEAR     24  11  57 CALM      30.09F
Indianapolis   MOCLDY    16   7  67 SW7       29.98F WCI   6
Lafayette      CLOUDY    18  10  71 SW3       29.98F
Madison        CLOUDY    21  10  62 S8        29.81F WCI  11
Milwaukee      CLOUDY    20   4  50 SW5       29.87F WCI  13
$$






USA.gov is the U.S. government's official web portal to all federal, state and local government web resources and services.